Weather in Vitoria

Spain     42°50′38″N   2°40′41″W
temp.,
°C
wind,
m/s
gust,
m/s
humid.,
%
clouds,
%
prec.,
mm/h
press.,
hPa
HPBL,
m
17 june, thu
thu1723:00+15n11930 2.9 101211
02:00+14w1194100 2.9 101211
05:00+14nne1194100 0.1 101011
08:00+14ne2397100 2.2 1011188
11:00+16ssw1389100 4.0 1011300
14:00+14sw1294100 12.4 1011185
17:00+14sse1192100 1.9 1011191
20:00+16nnw118214 2.3 1011363
18 june, fri
fri1823:00+12ene119371 0.0 101310
02:00+12se119285 0.0 101315
05:00+12ene0192100 0.0 101310
08:00+13e11904 0.0 101464
11:00+19se247118 0.0 1014845
14:00+23se3456100 0.3 10131268
17:00+25ssw0546100 0.1 10111854
20:00+20ese2567100 0.3 1012139
19 june, sat
sat1923:00+15nne3394100 0.6 1014101
02:00+14nnw1298100 5.2 1014149
05:00+14se1198100 2.8 101391
08:00+15s129595 3.4 1013174
11:00+17sw2286100 0.8 1012486
14:00+20sw2266100 2.6 1011680
17:00+19se346826 1.9 1009641
20:00+20ese236894 2.7 1008241
20 june, sun
sun2023:00+15sse117488 1.8 101011
02:00+13ssw227771 1.8 101031
05:00+12ssw37837 0.0 1009178
08:00+13sw3983100 0.0 1009530
11:00+13sw3679100 0.0 1009405
14:00+16ssw4872100 0.2 10091193
17:00+17sw6116913 0.7 10071308
20:00+18ssw486818 2.0 1006347
21 june, mon
mon2123:00+12sw51283100 0.6 1009420
02:00+10sw4118439 0.6 1010359
05:00+9sw38895 0.0 1010240
08:00+11sw6118351 0.0 1011756
11:00+14wsw796885 0.0 10121069
14:00+16wsw6960100 0.0 10121544
17:00+18wsw475896 0.2 10121678
20:00+16n237869 0.9 1013152